Tracking 26303 objects as of 1-Dec-2022
HD Live streaming from Space Station
objects crossing your sky now

OPS 7033 (VELA 11)

Track OPS 7033 (VELA 11) now!
OPS 7033 (VELA 11) is classified as:


NORAD ID: 4368
Int'l Code: 1970-027B
Perigee: 32,998.9 km
Apogee: 189,676.7 km
Inclination: 86.5 °
Period: 6,698.4 minutes
Semi major axis: 117708 km
RCS: Unknown
Launch date: April 8, 1970
Source: United States (US)
Launch site: AIR FORCE EASTERN TEST RANGE (AFETR)
aabbcc
Your satellite tracking list
Your tracking list is empty




NASA's NSSDC Master Catalog

Two Line Element Set (TLE):
1 04368U 70027B   22324.69546294  .00000770  00000-0  00000-0 0  9999
2 04368  86.5313  36.0141 6655316 112.0718   0.5449  0.21497587  9819
Source of the keplerian elements: AFSPC